AAL959 KDFW-KSDF

Flight info

Callsign AAL959
Flight time 1h 41m
Altitude 39000
Route AKUNA9 MLC MOOCH MBELL5
Aircraft A319/M-SDE3FGHIRWY/LB1

Departure

Time 2026-05-05 00:42
Airport Dallas Fort Worth International Airport (KDFW)

Arrival

Time 2026-05-05 02:24
Airport Louisville Muhammad Ali International Airport (KSDF)
Time Latitude Longitude Altitude Speed Heading
2026-05-04 23:58 32.90614 -97.03539 587 ft 0 kts 248°
2026-05-05 00:34 32.90621 -97.03520 587 ft 4 kts 253°
2026-05-05 00:34 32.90627 -97.03489 587 ft 4 kts 263°
2026-05-05 00:34 32.90628 -97.03457 587 ft 4 kts 276°
2026-05-05 00:35 32.90627 -97.03443 587 ft 0 kts 281°
2026-05-05 00:37 32.90627 -97.03444 587 ft 1 kts 282°
2026-05-05 00:38 32.90642 -97.03461 587 ft 4 kts 342°
2026-05-05 00:38 32.90666 -97.03419 587 ft 11 kts 77°
2026-05-05 00:38 32.90678 -97.03321 586 ft 13 kts 45°
2026-05-05 00:38 32.90775 -97.03309 585 ft 16 kts 360°
2026-05-05 00:39 32.90899 -97.03311 585 ft 20 kts 359°
2026-05-05 00:39 32.91011 -97.03273 580 ft 16 kts 73°
2026-05-05 00:39 32.91052 -97.03184 578 ft 14 kts
2026-05-05 00:39 32.91168 -97.03187 580 ft 17 kts 359°
2026-05-05 00:40 32.91291 -97.03188 581 ft 18 kts 360°
2026-05-05 00:40 32.91431 -97.03186 580 ft 22 kts
2026-05-05 00:40 32.91555 -97.03162 575 ft 16 kts 54°
2026-05-05 00:40 32.91559 -97.03024 577 ft 14 kts 91°
2026-05-05 00:41 32.91518 -97.02988 577 ft 0 kts 179°
2026-05-05 00:41 32.91299 -97.02987 576 ft 73 kts 180°
2026-05-05 00:41 32.90550 -97.02994 576 ft 140 kts 180°
2026-05-05 00:42 32.89454 -97.03001 900 ft 165 kts 180°
2026-05-05 00:42 32.88297 -97.02965 1696 ft 169 kts 178°
2026-05-05 00:42 32.87125 -97.02912 2491 ft 172 kts 178°
2026-05-05 00:42 32.85861 -97.02859 2946 ft 193 kts 180°
2026-05-05 00:43 32.84454 -97.02594 3394 ft 221 kts 162°
2026-05-05 00:43 32.82971 -97.01853 4090 ft 237 kts 161°
2026-05-05 00:43 32.81429 -97.01079 5056 ft 244 kts 161°
2026-05-05 00:43 32.79851 -97.00294 6096 ft 249 kts 161°
2026-05-05 00:44 32.78383 -96.99132 7076 ft 265 kts 137°
2026-05-05 00:44 32.77460 -96.97149 7969 ft 283 kts 116°
2026-05-05 00:44 32.76796 -96.94912 8839 ft 293 kts 108°
2026-05-05 00:44 32.76522 -96.92458 9568 ft 310 kts 92°
2026-05-05 00:45 32.76644 -96.89847 9936 ft 321 kts 84°
2026-05-05 00:45 32.77223 -96.87260 10175 ft 336 kts 65°
2026-05-05 00:45 32.78461 -96.84877 10687 ft 350 kts 47°
2026-05-05 00:45 32.80292 -96.82970 11485 ft 352 kts 28°
2026-05-05 00:46 32.82507 -96.81794 12408 ft 346 kts 10°
2026-05-05 00:46 32.84844 -96.81181 13382 ft 343 kts
2026-05-05 00:46 32.87207 -96.80901 14275 ft 340 kts 355°
2026-05-05 00:46 32.89584 -96.80903 15128 ft 343 kts 354°
2026-05-05 00:47 32.91974 -96.80910 15949 ft 346 kts 354°
2026-05-05 00:47 32.94387 -96.80918 16744 ft 348 kts 354°
2026-05-05 00:47 32.96827 -96.80920 17531 ft 351 kts 354°
2026-05-05 00:47 32.99278 -96.80921 18311 ft 354 kts 354°
2026-05-05 00:48 33.01747 -96.80957 19060 ft 356 kts 352°
2026-05-05 00:48 33.04232 -96.81029 19791 ft 358 kts 352°
2026-05-05 00:48 33.06729 -96.81118 20505 ft 361 kts 351°
2026-05-05 00:48 33.09258 -96.81210 21202 ft 364 kts 351°
2026-05-05 00:49 33.11795 -96.81299 21874 ft 367 kts 351°
2026-05-05 00:49 33.14357 -96.81385 22531 ft 370 kts 351°
2026-05-05 00:49 33.16942 -96.81469 23173 ft 373 kts 350°
2026-05-05 00:49 33.19546 -96.81551 23809 ft 376 kts 350°
2026-05-05 00:50 33.22167 -96.81629 24420 ft 378 kts 350°
2026-05-05 00:50 33.24809 -96.81707 25009 ft 381 kts 349°
2026-05-05 00:50 33.27466 -96.81783 25599 ft 383 kts 349°
2026-05-05 00:50 33.30138 -96.81860 26175 ft 385 kts 349°
2026-05-05 00:51 33.32809 -96.81936 26703 ft 385 kts 348°
2026-05-05 00:51 33.35497 -96.82017 27238 ft 387 kts 348°
2026-05-05 00:51 33.38197 -96.82101 27752 ft 389 kts 348°
2026-05-05 00:51 33.40908 -96.82188 28276 ft 390 kts 348°
2026-05-05 00:52 33.43661 -96.82055 28765 ft 405 kts 356°
2026-05-05 00:52 33.46453 -96.81250 29272 ft 424 kts
2026-05-05 00:52 33.49187 -96.79721 29762 ft 440 kts 16°
2026-05-05 00:52 33.51885 -96.77972 30197 ft 441 kts 16°
2026-05-05 00:53 33.54597 -96.76223 30601 ft 444 kts 15°
2026-05-05 00:53 33.57326 -96.74470 31017 ft 446 kts 15°
2026-05-05 00:53 33.60063 -96.72714 31439 ft 448 kts 15°
2026-05-05 00:53 33.62817 -96.70950 31819 ft 450 kts 14°
2026-05-05 00:54 33.65584 -96.69176 32192 ft 452 kts 14°
2026-05-05 00:54 33.68354 -96.67396 32619 ft 452 kts 14°
2026-05-05 00:54 33.71116 -96.65614 33195 ft 449 kts 14°
2026-05-05 00:54 33.73858 -96.63836 33746 ft 446 kts 14°
2026-05-05 00:55 33.76578 -96.62069 34288 ft 443 kts 13°
2026-05-05 00:55 33.79283 -96.60316 34820 ft 440 kts 13°
2026-05-05 00:55 33.81981 -96.58573 35271 ft 439 kts 13°
2026-05-05 00:55 33.84674 -96.56841 35672 ft 439 kts 13°
2026-05-05 00:56 33.87364 -96.55111 36045 ft 439 kts 13°
2026-05-05 00:56 33.90021 -96.53400 36381 ft 439 kts 13°
2026-05-05 00:56 33.92713 -96.51660 36739 ft 439 kts 13°
2026-05-05 00:56 33.95401 -96.49917 37072 ft 439 kts 13°
2026-05-05 00:57 33.98085 -96.48174 37461 ft 438 kts 13°
2026-05-05 00:57 34.00759 -96.46436 37854 ft 435 kts 13°
2026-05-05 00:57 34.03414 -96.44709 38247 ft 432 kts 12°
2026-05-05 00:57 34.06054 -96.42985 38580 ft 433 kts 13°
2026-05-05 00:58 34.08643 -96.41013 38775 ft 444 kts 18°
2026-05-05 00:58 34.13747 -96.36865 38803 ft 441 kts 18°
2026-05-05 00:59 34.18824 -96.32707 38805 ft 441 kts 18°
2026-05-05 00:59 34.23900 -96.28561 38803 ft 440 kts 18°
2026-05-05 01:00 34.28976 -96.24413 38799 ft 440 kts 18°
2026-05-05 01:00 34.34051 -96.20262 38794 ft 440 kts 18°
2026-05-05 01:01 34.39130 -96.16097 38795 ft 441 kts 18°
2026-05-05 01:01 34.44203 -96.11926 38803 ft 441 kts 18°
2026-05-05 01:02 34.49287 -96.07743 38799 ft 442 kts 18°
2026-05-05 01:02 34.54377 -96.03560 38803 ft 442 kts 18°
2026-05-05 01:03 34.59460 -95.99370 38803 ft 442 kts 18°
2026-05-05 01:03 34.64535 -95.95167 38807 ft 441 kts 18°
2026-05-05 01:04 34.68735 -95.91684 38807 ft 439 kts 18°
2026-05-05 01:04 34.76301 -95.85424 38801 ft 438 kts 17°
2026-05-05 01:05 34.81321 -95.81246 38798 ft 440 kts 19°
2026-05-05 01:05 34.83703 -95.78780 38799 ft 461 kts 30°
2026-05-05 01:05 34.85798 -95.75709 38798 ft 483 kts 41°
2026-05-05 01:06 34.87491 -95.72079 38794 ft 501 kts 50°
2026-05-05 01:06 34.89020 -95.68267 38791 ft 501 kts 50°
2026-05-05 01:06 34.92077 -95.60640 38794 ft 501 kts 50°
2026-05-05 01:07 34.95146 -95.53021 38790 ft 500 kts 50°
2026-05-05 01:07 34.98216 -95.45407 38791 ft 500 kts 50°
2026-05-05 01:08 35.01279 -95.37785 38793 ft 500 kts 50°
2026-05-05 01:08 35.04339 -95.30172 38788 ft 500 kts 50°
2026-05-05 01:09 35.07392 -95.22558 38788 ft 500 kts 50°
2026-05-05 01:09 35.10437 -95.14926 38788 ft 500 kts 50°
2026-05-05 01:10 35.13451 -95.07339 38792 ft 499 kts 50°
2026-05-05 01:10 35.16496 -94.99658 38790 ft 499 kts 50°
2026-05-05 01:11 35.19499 -94.92077 38801 ft 499 kts 50°
2026-05-05 01:11 35.22521 -94.84449 38792 ft 498 kts 50°
2026-05-05 01:12 35.25540 -94.76813 38796 ft 498 kts 50°
2026-05-05 01:12 35.28547 -94.69178 38801 ft 498 kts 50°
2026-05-05 01:13 35.31540 -94.61537 38805 ft 498 kts 50°
2026-05-05 01:13 35.34530 -94.53886 38806 ft 498 kts 50°
2026-05-05 01:14 35.37519 -94.46232 38803 ft 498 kts 50°
2026-05-05 01:14 35.40512 -94.38580 38802 ft 498 kts 49°
2026-05-05 01:15 35.43491 -94.30916 38806 ft 498 kts 50°
2026-05-05 01:15 35.46465 -94.23239 38808 ft 498 kts 49°
2026-05-05 01:16 35.49427 -94.15573 38811 ft 496 kts 49°
2026-05-05 01:16 35.52387 -94.07916 38805 ft 496 kts 49°
2026-05-05 01:17 35.55344 -94.00255 38819 ft 497 kts 49°
2026-05-05 01:17 35.58297 -93.92563 38815 ft 498 kts 49°
2026-05-05 01:18 35.61241 -93.84870 38816 ft 498 kts 50°
2026-05-05 01:18 35.64192 -93.77172 38810 ft 498 kts 49°
2026-05-05 01:19 35.67139 -93.69474 38812 ft 498 kts 49°
2026-05-05 01:19 35.70080 -93.61760 38818 ft 498 kts 50°
2026-05-05 01:20 35.73005 -93.54022 38823 ft 499 kts 50°
2026-05-05 01:20 35.75930 -93.46284 38825 ft 498 kts 49°
2026-05-05 01:21 35.78860 -93.38549 38820 ft 499 kts 49°
2026-05-05 01:21 35.81788 -93.30805 38843 ft 498 kts 50°
2026-05-05 01:22 35.84701 -93.23066 38839 ft 498 kts 50°
2026-05-05 01:22 35.87592 -93.15323 38835 ft 497 kts 50°
2026-05-05 01:23 35.90487 -93.07583 38842 ft 497 kts 50°
2026-05-05 01:23 35.93382 -92.99840 38842 ft 497 kts 50°
2026-05-05 01:24 35.96273 -92.92084 38847 ft 497 kts 50°
2026-05-05 01:24 35.99157 -92.84324 38846 ft 497 kts 50°
2026-05-05 01:25 36.02043 -92.76556 38834 ft 498 kts 50°
2026-05-05 01:25 36.04927 -92.68762 38817 ft 500 kts 50°
2026-05-05 01:26 36.07806 -92.60943 38818 ft 499 kts 50°
2026-05-05 01:26 36.10673 -92.53124 38818 ft 499 kts 50°
2026-05-05 01:27 36.13542 -92.45296 38819 ft 500 kts 50°
2026-05-05 01:27 36.16415 -92.37466 38825 ft 500 kts 50°
2026-05-05 01:28 36.19291 -92.29617 38822 ft 501 kts 50°
2026-05-05 01:28 36.22159 -92.21745 38826 ft 502 kts 50°
2026-05-05 01:29 36.25019 -92.13861 38831 ft 502 kts 50°
2026-05-05 01:29 36.27872 -92.05971 38834 ft 502 kts 50°
2026-05-05 01:30 36.30728 -91.98073 38839 ft 502 kts 50°
2026-05-05 01:30 36.33578 -91.90156 38845 ft 503 kts 50°
2026-05-05 01:31 36.36420 -91.82233 38848 ft 502 kts 51°
2026-05-05 01:31 36.39239 -91.74367 38852 ft 502 kts 51°
2026-05-05 01:32 36.42072 -91.66448 38856 ft 502 kts 51°
2026-05-05 01:32 36.44901 -91.58545 38856 ft 500 kts 51°
2026-05-05 01:33 36.47723 -91.50645 38859 ft 500 kts 52°
2026-05-05 01:33 36.50525 -91.42744 38860 ft 500 kts 52°
2026-05-05 01:34 36.53317 -91.34835 38861 ft 499 kts 53°
2026-05-05 01:34 36.56102 -91.26947 38862 ft 498 kts 53°
2026-05-05 01:35 36.58882 -91.19050 38862 ft 498 kts 54°
2026-05-05 01:35 36.61651 -91.11159 38868 ft 498 kts 54°
2026-05-05 01:36 36.64415 -91.03276 38868 ft 496 kts 54°
2026-05-05 01:36 36.67166 -90.95400 38868 ft 495 kts 54°
2026-05-05 01:37 36.69907 -90.87538 38865 ft 494 kts 55°
2026-05-05 01:37 36.72637 -90.79691 38867 ft 493 kts 55°
2026-05-05 01:38 36.75353 -90.71850 38864 ft 492 kts 55°
2026-05-05 01:38 36.78058 -90.64018 38858 ft 492 kts 56°
2026-05-05 01:39 36.80761 -90.56187 38854 ft 491 kts 56°
2026-05-05 01:39 36.83455 -90.48367 38847 ft 490 kts 56°
2026-05-05 01:40 36.86118 -90.40613 38843 ft 489 kts 56°
2026-05-05 01:40 36.88789 -90.32797 38840 ft 489 kts 56°
2026-05-05 01:41 36.91481 -90.24932 38835 ft 489 kts 56°
2026-05-05 01:41 36.94128 -90.17164 38839 ft 489 kts 57°
2026-05-05 01:42 36.96789 -90.09333 38845 ft 489 kts 57°
2026-05-05 01:42 36.99455 -90.01448 38848 ft 489 kts 57°
2026-05-05 01:43 37.02096 -89.93612 38853 ft 488 kts 58°
2026-05-05 01:43 37.04775 -89.85899 38858 ft 485 kts 57°
2026-05-05 01:44 37.07609 -89.78267 38855 ft 482 kts 56°
2026-05-05 01:44 37.10449 -89.70670 38848 ft 482 kts 57°
2026-05-05 01:45 37.13240 -89.63038 38843 ft 482 kts 57°
2026-05-05 01:45 37.16003 -89.55392 38841 ft 481 kts 57°
2026-05-05 01:46 37.18768 -89.47746 38839 ft 481 kts 57°
2026-05-05 01:46 37.21527 -89.40107 38841 ft 481 kts 58°
2026-05-05 01:47 37.24279 -89.32462 38844 ft 481 kts 58°
2026-05-05 01:47 37.27024 -89.24821 38846 ft 480 kts 58°
2026-05-05 01:48 37.29768 -89.17185 38848 ft 479 kts 58°
2026-05-05 01:48 37.32500 -89.09543 38849 ft 479 kts 58°
2026-05-05 01:49 37.34761 -89.03194 38850 ft 479 kts 59°
2026-05-05 01:49 37.37477 -88.95563 38852 ft 478 kts 59°
2026-05-05 01:50 37.40184 -88.87934 38857 ft 477 kts 59°
2026-05-05 01:50 37.42900 -88.80266 38861 ft 477 kts 59°
2026-05-05 01:51 37.45587 -88.72651 38858 ft 476 kts 60°
2026-05-05 01:51 37.48265 -88.65047 38863 ft 475 kts 60°
2026-05-05 01:52 37.50938 -88.57458 38864 ft 474 kts 60°
2026-05-05 01:52 37.53581 -88.49923 38865 ft 473 kts 60°
2026-05-05 01:53 37.56228 -88.42354 38861 ft 472 kts 61°
2026-05-05 01:53 37.58865 -88.34793 38858 ft 471 kts 61°
2026-05-05 01:54 37.60206 -88.30955 38626 ft 484 kts 61°
2026-05-05 01:54 37.61570 -88.27044 38380 ft 490 kts 62°
2026-05-05 01:54 37.62936 -88.23110 38127 ft 490 kts 62°
2026-05-05 01:54 37.64289 -88.19187 37684 ft 485 kts 62°
2026-05-05 01:55 37.65622 -88.15299 37192 ft 481 kts 63°
2026-05-05 01:55 37.66881 -88.11392 36699 ft 478 kts 64°
2026-05-05 01:55 37.68052 -88.07475 36162 ft 476 kts 66°
2026-05-05 01:55 37.69160 -88.03575 35651 ft 473 kts 66°
2026-05-05 01:56 37.70257 -87.99658 35116 ft 470 kts 66°
2026-05-05 01:56 37.71355 -87.95775 34582 ft 468 kts 66°
2026-05-05 01:56 37.72460 -87.91924 34033 ft 466 kts 66°
2026-05-05 01:56 37.73574 -87.88094 33505 ft 464 kts 66°
2026-05-05 01:57 37.74691 -87.84275 32965 ft 462 kts 66°
2026-05-05 01:57 37.75804 -87.80486 32437 ft 460 kts 65°
2026-05-05 01:57 37.76917 -87.76708 31914 ft 457 kts 66°
2026-05-05 01:57 37.78019 -87.72949 31389 ft 456 kts 66°
2026-05-05 01:58 37.79115 -87.69192 30880 ft 453 kts 66°
2026-05-05 01:58 37.80200 -87.65463 30378 ft 451 kts 66°
2026-05-05 01:58 37.81276 -87.61752 29882 ft 449 kts 66°
2026-05-05 01:58 37.82343 -87.58056 29406 ft 445 kts 66°
2026-05-05 01:59 37.83389 -87.54391 28927 ft 442 kts 69°
2026-05-05 01:59 37.84093 -87.50601 28468 ft 442 kts 81°
2026-05-05 01:59 37.84253 -87.46726 28016 ft 441 kts 92°
2026-05-05 01:59 37.83911 -87.42891 27556 ft 438 kts 99°
2026-05-05 02:00 37.83444 -87.39097 27097 ft 435 kts 99°
2026-05-05 02:00 37.82978 -87.35334 26643 ft 432 kts 99°
2026-05-05 02:00 37.82516 -87.31588 26175 ft 429 kts 99°
2026-05-05 02:00 37.82059 -87.27870 25714 ft 427 kts 99°
2026-05-05 02:01 37.81604 -87.24171 25228 ft 425 kts 99°
2026-05-05 02:01 37.81149 -87.20486 24747 ft 423 kts 99°
2026-05-05 02:01 37.80694 -87.16817 24244 ft 421 kts 99°
2026-05-05 02:01 37.80240 -87.13170 23756 ft 419 kts 99°
2026-05-05 02:02 37.79788 -87.09555 23257 ft 416 kts 99°
2026-05-05 02:02 37.79337 -87.05966 22867 ft 410 kts 99°
2026-05-05 02:02 37.78890 -87.02419 22241 ft 405 kts 99°
2026-05-05 02:02 37.78453 -86.98942 21774 ft 396 kts 99°
2026-05-05 02:03 37.78026 -86.95552 21315 ft 387 kts 99°
2026-05-05 02:03 37.77607 -86.92231 20873 ft 378 kts 99°
2026-05-05 02:03 37.77198 -86.88989 20433 ft 370 kts 99°
2026-05-05 02:03 37.76797 -86.85818 20007 ft 362 kts 99°
2026-05-05 02:04 37.76402 -86.82705 19589 ft 355 kts 99°
2026-05-05 02:04 37.76018 -86.79682 19193 ft 350 kts 99°
2026-05-05 02:04 37.75626 -86.76623 18773 ft 347 kts 100°
2026-05-05 02:04 37.75241 -86.73630 18374 ft 343 kts 99°
2026-05-05 02:05 37.74863 -86.70712 17992 ft 341 kts 100°
2026-05-05 02:05 37.74485 -86.67767 17600 ft 339 kts 100°
2026-05-05 02:05 37.74107 -86.64827 17209 ft 339 kts 100°
2026-05-05 02:05 37.73726 -86.61889 16905 ft 338 kts 100°
2026-05-05 02:06 37.73350 -86.58957 16638 ft 338 kts 100°
2026-05-05 02:06 37.72992 -86.56017 16266 ft 340 kts 97°
2026-05-05 02:06 37.72965 -86.52993 15893 ft 342 kts 84°
2026-05-05 02:06 37.73384 -86.50019 15798 ft 353 kts 76°
2026-05-05 02:07 37.73911 -86.46932 15638 ft 356 kts 77°
2026-05-05 02:07 37.74429 -86.43876 15477 ft 356 kts 77°
2026-05-05 02:07 37.74951 -86.40875 15312 ft 355 kts 74°
2026-05-05 02:07 37.75883 -86.38018 15152 ft 350 kts 56°
2026-05-05 02:08 37.77387 -86.35578 14990 ft 344 kts 39°
2026-05-05 02:08 37.79278 -86.33774 14531 ft 339 kts 23°
2026-05-05 02:08 37.81447 -86.32710 14154 ft 330 kts
2026-05-05 02:08 37.83680 -86.32048 13750 ft 329 kts
2026-05-05 02:09 37.85869 -86.31374 13347 ft 330 kts
2026-05-05 02:09 37.88075 -86.30675 13064 ft 325 kts
2026-05-05 02:09 37.90259 -86.29973 12699 ft 323 kts
2026-05-05 02:09 37.92440 -86.29274 12174 ft 323 kts
2026-05-05 02:10 37.94608 -86.28582 11714 ft 319 kts
2026-05-05 02:10 37.96755 -86.27899 11342 ft 318 kts
2026-05-05 02:10 37.98884 -86.27081 10961 ft 323 kts 18°
2026-05-05 02:10 38.00892 -86.25751 10589 ft 327 kts 25°
2026-05-05 02:11 38.02879 -86.24351 10202 ft 327 kts 25°
2026-05-05 02:11 38.04874 -86.22960 9820 ft 327 kts 25°
2026-05-05 02:11 38.06867 -86.21575 9433 ft 327 kts 25°
2026-05-05 02:11 38.08829 -86.20106 9044 ft 329 kts 34°
2026-05-05 02:12 38.10517 -86.18134 8657 ft 331 kts 48°
2026-05-05 02:12 38.13627 -86.13831 7863 ft 329 kts 47°
2026-05-05 02:12 38.15173 -86.11703 7471 ft 327 kts 47°
2026-05-05 02:13 38.16714 -86.09589 7084 ft 325 kts 47°
2026-05-05 02:13 38.18247 -86.07493 6726 ft 323 kts 47°
2026-05-05 02:13 38.19765 -86.05414 6407 ft 320 kts 47°
2026-05-05 02:13 38.21274 -86.03347 6073 ft 318 kts 47°
2026-05-05 02:14 38.22766 -86.01295 6006 ft 315 kts 47°
2026-05-05 02:14 38.24250 -85.99246 6016 ft 316 kts 47°
2026-05-05 02:14 38.25746 -85.97182 5984 ft 318 kts 47°
2026-05-05 02:14 38.27241 -85.95124 5762 ft 315 kts 46°
2026-05-05 02:15 38.28806 -85.93182 5417 ft 313 kts 35°
2026-05-05 02:15 38.30687 -85.91866 5051 ft 306 kts 16°
2026-05-05 02:15 38.32735 -85.91339 4750 ft 294 kts 357°
2026-05-05 02:15 38.34704 -85.91551 4574 ft 276 kts 341°
2026-05-05 02:16 38.36532 -85.92126 4398 ft 265 kts 339°
2026-05-05 02:16 38.38315 -85.92604 4219 ft 262 kts 351°
2026-05-05 02:16 38.40092 -85.92181 4044 ft 263 kts 24°
2026-05-05 02:16 38.41461 -85.90722 3916 ft 254 kts 57°
2026-05-05 02:17 38.42186 -85.88743 3787 ft 241 kts 79°
2026-05-05 02:17 38.42250 -85.86722 3636 ft 221 kts 111°
2026-05-05 02:17 38.41611 -85.85046 3524 ft 204 kts 133°
2026-05-05 02:17 38.40744 -85.83670 3401 ft 195 kts 139°
2026-05-05 02:18 38.39850 -85.82392 3267 ft 190 kts 143°
2026-05-05 02:18 38.38767 -85.81537 3147 ft 179 kts 169°
2026-05-05 02:18 38.37588 -85.81134 3067 ft 175 kts 172°
2026-05-05 02:18 38.36417 -85.80746 2994 ft 173 kts 172°
2026-05-05 02:19 38.35254 -85.80360 3003 ft 170 kts 172°
2026-05-05 02:19 38.34156 -85.79992 2985 ft 156 kts 172°
2026-05-05 02:19 38.33120 -85.79649 2984 ft 153 kts 173°
2026-05-05 02:19 38.32083 -85.79307 2987 ft 154 kts 172°
2026-05-05 02:20 38.31048 -85.78964 2934 ft 153 kts 172°
2026-05-05 02:20 38.30011 -85.78622 2785 ft 155 kts 172°
2026-05-05 02:20 38.28964 -85.78275 2605 ft 155 kts 171°
2026-05-05 02:20 38.27917 -85.77928 2404 ft 156 kts 171°
2026-05-05 02:21 38.26865 -85.77580 2200 ft 156 kts 169°
2026-05-05 02:21 38.25861 -85.77245 1996 ft 141 kts 169°
2026-05-05 02:21 38.24959 -85.76947 1818 ft 129 kts 169°
2026-05-05 02:21 38.24100 -85.76663 1650 ft 127 kts 167°
2026-05-05 02:22 38.23252 -85.76382 1485 ft 125 kts 168°
2026-05-05 02:22 38.22408 -85.76103 1324 ft 125 kts 167°
2026-05-05 02:22 38.21569 -85.75826 1158 ft 125 kts 167°
2026-05-05 02:22 38.20730 -85.75549 994 ft 125 kts 167°
2026-05-05 02:23 38.19890 -85.75266 821 ft 125 kts 167°
2026-05-05 02:23 38.19046 -85.74987 655 ft 125 kts 167°
2026-05-05 02:23 38.18205 -85.74714 501 ft 123 kts 167°
2026-05-05 02:23 38.17495 -85.74483 482 ft 83 kts 164°
2026-05-05 02:24 38.17114 -85.74349 478 ft 36 kts 165°
2026-05-05 02:24 38.16932 -85.74257 484 ft 17 kts 140°
2026-05-05 02:24 38.16901 -85.74143 483 ft 13 kts 41°
2026-05-05 02:24 38.17010 -85.74158 485 ft 20 kts 346°
2026-05-05 02:25 38.17155 -85.74204 480 ft 25 kts 346°
2026-05-05 02:25 38.17366 -85.74274 481 ft 33 kts 345°
2026-05-05 02:25 38.17589 -85.74347 483 ft 33 kts 345°
2026-05-05 02:25 38.17806 -85.74421 484 ft 29 kts 345°
2026-05-05 02:26 38.17978 -85.74472 484 ft 23 kts 347°
2026-05-05 02:26 38.18057 -85.74412 481 ft 16 kts 76°
2026-05-05 02:26 38.18090 -85.74246 489 ft 21 kts 72°
2026-05-05 02:26 38.18159 -85.74080 488 ft 22 kts 60°
2026-05-05 02:27 38.18226 -85.73967 487 ft 10 kts
2026-05-05 02:27 38.18294 -85.74014 483 ft 11 kts 327°
2026-05-05 02:27 38.18316 -85.74057 489 ft 3 kts 282°
2026-05-05 02:27 38.18317 -85.74062 489 ft 0 kts 282°